Location: Molveno
(46.1500°N, 10.9667°E)
Time: 01:37:01
(UTC+00:00)

Genesis I - Pass Details

Date: 05 July 2020
Orbit: 510 x 513 km, 64.5° (Epoch: 11 August)

Event Time Altitude Azimuth Distance (km) Brightness Sun altitude
Exits shadow 22:18:43 53° 212° (SSW) 636 3.3 -19.8°
Maximum altitude 22:19:35 87° 125° (SE) 517 3.0 -19.8°
Drops below altitude 10° 22:23:28 10° 37° (NE) 1,737 6.4 -20.0°
Sets 22:25:39 0° 38° (NE) 2,627 7.4 -20.1°
